Theta_e
321 321 321 321 321 321 321 321 321 321 321 320 318 317 315 312 313 313 309 308 308 309 310 309 308 308 305 307 304 301 302 304 303 301 300 299 298 298 298 298 298 298 297
321 321 322 321 320 320 320 319 316 317 318 316 315 314 314 315 314 312 311 311 310 308 307 306 304 302 302 299 298 301 301 299 299 299 298 298 298 298 298 297 297 297 297
320 320 317 314 313 312 311 310 310 311 312 312 312 312 310 307 305 304 303 302 302 302 301 302 301 299 298 299 298 299 299 299 299 298 298 298 298 298 298 298 297 296 297
313 312 311 310 309 309 308 308 307 306 307 307 306 305 305 305 305 303 302 301 300 300 299 299 299 299 298 298 298 298 298 298 299 299 298 298 298 298 297 296 296 296 296
309 309 308 307 307 306 305 304 303 303 302 302 301 301 300 301 300 300 300 299 298 298 299 299 299 299 300 300 299 299 298 298 297 297 297 297 297 297 296 296 296 297 296
306 305 304 303 302 301 301 300 299 298 298 297 296 296 296 295 295 295 294 294 294 294 297 298 299 299 298 297 297 297 297 296 296 296 297 296 295 295 295 295 296 295 295
303 302 302 301 299 298 296 296 296 297 297 297 297 296 296 295 295 294 293 293 293 294 296 297 296 296 296 295 295 294 294 295 295 296 295 295 295 295 295 294 294 294 294
302 301 300 298 297 297 297 297 298 297 297 296 296 295 295 295 294 293 292 291 291 293 294 294 293 293 293 294 294 294 294 293 293 293 293 294 294 294 294 294 294 295 294
301 300 298 297 297 297 297 296 296 296 296 295 294 294 293 293 293 293 292 292 292 293 293 294 294 294 293 293 293 293 292 292 292 293 294 295 295 295 295 296 296 296 295
300 298 297 297 296 295 295 295 294 294 293 293 293 293 293 292 292 292 290 290 289 290 291 291 291 291 292 293 293 292 292 292 292 292 293 294 294 294 294 294 294 294 294
299 296 295 295 294 294 294 293 293 293 293 293 292 292 292 292 292 291 291 291 291 291 291 290 290 291 292 293 294 295 294 294 296 295 293 293 292 292 292 292 293 293 292
298 296 295 294 294 293 293 293 293 293 292 291 291 291 291 292 292 292 292 292 292 292 291 291 291 293 293 292 293 292 293 293 293 292 291 290 291 291 292 292 293 292 292
297 295 294 294 293 292 292 293 292 291 291 291 290 291 291 292 292 291 291 291 291 292 292 292 292 292 291 291 291 291 291 290 290 289 289 289 289 289 289 290 290 290 291
297 295 294 294 293 292 293 292 290 291 290 289 289 290 291 292 292 291 291 291 291 291 291 291 291 290 290 290 289 289 289 289 289 289 288 288 288 289 289 289 289 289 289
296 295 294 293 292 292 292 290 290 290 289 289 289 290 291 292 292 291 291 291 291 290 290 290 289 289 289 290 289 288 289 289 288 289 288 288 288 288 288 289 289 289 289
296 295 294 293 291 292 291 290 290 290 289 289 289 289 291 292 290 291 291 290 290 290 289 289 289 289 289 289 289 290 291 290 289 289 289 289 288 288 288 288 288 288 288
295 294 294 292 291 291 290 289 289 290 289 289 289 289 291 289 289 290 289 290 289 289 289 288 289 289 289 290 291 291 291 291 291 290 290 289 288 288 288 288 288 288 288
295 294 293 291 291 291 290 289 289 289 289 289 289 289 290 289 289 289 289 289 289 288 288 289 290 290 290 290 291 292 292 291 292 291 291 291 289 288 288 288 288 288 288
295 294 292 291 291 290 289 289 289 289 289 289 289 288 290 288 289 288 288 288 288 288 288 289 290 291 291 291 291 292 292 292 292 292 292 292 291 291 290 288 288 288 288
294 293 291 290 290 289 289 289 289 289 289 289 288 289 290 289 288 288 288 287 287 288 288 289 290 291 291 291 291 291 292 292 292 292 291 291 291 291 291 291 290 289 289
294 293 291 290 290 290 290 289 289 289 289 288 288 288 288 288 288 287 288 287 288 288 289 289 290 290 290 290 290 290 290 291 291 291 291 292 292 292 292 292 292 291 290
294 292 290 290 290 290 289 289 289 289 288 288 288 288 287 287 287 287 288 287 287 288 289 289 290 290 291 291 290 290 290 290 290 291 291 291 291 291 291 292 292 293 292
293 291 290 290 290 290 290 289 289 288 288 288 288 287 286 287 287 287 287 287 287 287 288 289 289 290 290 290 290 290 290 290 290 290 290 290 290 291 291 291 292 292 292
293 291 290 290 290 290 290 289 288 288 288 288 287 287 286 286 286 287 287 287 287 287 287 288 288 288 289 289 289 289 289 289 290 290 291 291 290 291 292 292 292 292 293
291 290 290 291 291 290 290 289 288 287 287 287 287 286 286 285 285 285 286 285 285 287 288 288 288 288 288 288 289 289 290 291 291 290 290 291 291 292 292 292 292 292 292
291 290 290 291 291 290 289 288 287 286 286 287 287 286 286 286 286 285 284 285 285 286 288 288 289 289 289 290 290 291 290 290 290 290 290 291 292 292 292 293 292 293 293
Wind_Speed
21 18 17 14 11 9 7 7 3 0 1 2 3 8 11 14 16 16 14 13 12 12 14 15 15 19 15 19 17 15 22 30 32 30 23 26 28 28 23 20 21 24 28
16 15 14 11 12 13 12 11 13 10 9 7 5 8 10 9 10 12 14 16 12 11 11 11 12 12 14 14 15 24 28 21 18 21 22 25 26 27 29 30 27 23 26
13 16 17 18 16 18 16 15 15 13 15 14 11 8 6 5 6 4 3 2 5 7 8 12 13 15 14 13 14 13 14 15 19 23 26 26 26 25 28 29 29 25 24
18 20 20 19 19 19 17 15 15 13 13 11 9 7 6 6 6 7 7 8 8 8 8 9 11 15 17 17 18 17 20 20 20 18 21 24 24 25 29 34 35 24 26
18 18 18 16 15 14 12 12 11 9 8 7 6 4 4 5 6 7 9 10 11 11 11 12 13 12 11 13 18 20 23 25 28 30 31 31 33 35 33 31 26 28 29
15 14 13 11 10 9 8 8 7 5 4 2 0 1 4 8 8 9 10 10 12 13 13 15 17 20 21 20 15 16 20 23 22 25 28 29 31 31 30 24 23 25 26
10 10 9 8 7 6 7 7 6 5 5 4 2 2 4 8 9 10 10 9 9 9 10 13 15 15 16 19 20 18 20 22 20 22 25 25 27 28 28 30 33 33 35
9 7 6 5 6 6 5 5 4 4 2 1 4 5 4 7 9 10 10 9 8 8 9 10 12 14 15 12 15 21 23 23 24 24 26 29 31 32 28 29 30 29 29
8 6 4 3 3 3 3 3 3 3 3 2 4 4 5 6 7 10 14 11 8 6 8 11 14 19 19 17 19 21 23 24 22 21 20 22 23 23 23 25 25 22 23
7 5 4 3 2 2 2 2 1 2 2 2 3 2 4 8 9 14 17 14 10 10 11 11 13 17 13 14 16 19 23 23 22 21 25 26 25 28 26 28 30 27 23
6 4 3 3 3 2 2 2 2 3 2 3 5 6 6 8 12 13 17 14 13 15 16 15 15 14 14 15 18 22 24 25 26 23 22 27 27 26 23 20 19 21 24
7 5 5 3 3 2 2 2 3 3 3 4 5 5 7 11 13 12 10 11 13 15 15 15 15 18 18 19 20 20 19 21 26 29 30 25 21 21 20 18 19 20 21
8 6 6 5 4 3 3 2 2 3 4 5 6 8 10 11 11 12 15 12 12 12 14 15 16 19 18 17 16 15 18 21 21 23 22 22 22 23 23 24 25 27 30
9 8 7 6 5 4 3 3 2 3 5 6 8 10 12 12 13 13 10 12 13 15 16 18 20 14 11 14 16 16 16 18 18 21 23 23 22 21 20 19 20 18 18
11 10 9 7 7 5 4 3 5 4 6 7 9 12 14 13 10 11 11 14 16 16 16 14 12 13 12 13 15 17 18 19 21 21 22 21 20 20 20 19 19 19 19
13 11 11 9 8 6 5 5 4 6 7 7 9 12 13 11 8 10 12 13 11 10 13 12 11 12 13 15 16 20 21 22 22 20 21 22 22 21 20 18 17 18 20
15 13 12 10 9 7 6 6 7 7 8 9 11 13 13 9 7 11 10 10 10 11 8 8 9 10 11 13 14 17 20 20 21 23 23 20 21 21 20 20 18 18 19
16 15 12 13 10 8 7 7 7 7 7 9 12 14 15 9 9 8 8 10 10 7 5 4 6 11 13 15 14 16 18 18 21 22 24 23 20 19 19 19 19 20 20
18 15 14 12 11 9 7 7 7 7 7 8 11 12 12 9 8 6 7 9 9 8 3 4 7 9 11 12 16 17 16 18 19 21 21 23 24 22 20 18 18 18 18
16 15 15 13 10 9 8 7 7 7 7 9 11 12 12 11 9 8 7 6 8 5 6 8 10 11 12 14 15 17 18 17 18 20 21 22 23 23 24 22 19 18 18
17 16 15 13 10 9 8 7 7 8 9 7 10 12 8 9 9 9 8 6 8 8 9 10 14 16 16 16 18 20 20 19 20 22 24 24 23 23 22 24 24 22 18
16 15 15 13 11 8 8 7 8 8 7 6 10 13 8 9 9 9 8 7 7 10 11 13 14 15 17 18 19 21 22 23 24 23 27 29 27 27 26 23 23 24 23
17 16 16 14 11 9 7 7 8 7 7 9 11 11 9 9 10 9 9 8 9 13 13 16 17 18 19 21 22 23 25 24 24 26 31 31 29 29 28 28 27 25 23
16 16 15 13 10 8 8 8 7 8 9 9 9 10 10 10 10 10 11 9 10 14 15 16 17 19 22 22 22 23 22 22 24 27 29 29 29 28 27 27 24 24 25
17 16 15 11 9 8 7 8 9 10 10 9 8 9 10 9 11 12 11 11 13 15 14 15 16 17 18 18 19 19 20 23 23 23 26 29 30 28 25 24 24 25 25
18 16 14 10 9 8 7 8 9 10 10 9 9 9 10 9 11 11 12 13 15 15 12 13 14 15 17 18 19 21 23 23 26 27 28 28 29 26 26 26 26 26 26
Wind_Direction
118 118 122 118 116 125 113 99 116 348 297 199 204 210 197 198 208 216 220 232 239 253 263 271 269 272 265 278 276 283 292 300 298 301 287 273 266 265 271 280 288 293 293
111 118 105 101 112 114 102 86 82 86 98 110 141 193 197 221 233 239 245 252 259 266 275 265 254 263 279 285 280 298 297 289 279 277 280 279 279 281 278 281 281 293 302
115 118 109 101 101 95 91 93 92 93 92 97 110 127 136 126 127 130 143 211 203 229 249 272 284 289 290 295 301 297 295 286 278 282 282 282 287 282 279 280 286 296 283
111 108 107 106 98 94 95 94 96 101 106 111 115 124 139 165 184 199 213 233 251 267 283 294 299 288 288 283 269 268 266 268 268 277 279 278 279 280 288 294 298 289 284
109 108 102 100 96 95 99 102 101 99 98 103 121 143 179 226 238 259 273 277 276 274 270 270 268 274 277 283 291 289 287 284 277 278 282 284 283 284 287 292 290 283 285
112 105 103 104 101 106 105 94 93 95 95 115 71 264 267 276 285 288 287 284 273 266 267 261 259 263 273 282 284 285 285 289 289 291 290 289 289 291 296 297 294 298 295
107 107 105 99 92 77 61 67 80 77 75 57 22 348 280 307 319 314 314 308 291 270 272 282 285 283 273 277 284 286 277 276 286 289 291 293 290 286 284 284 281 280 284
109 102 89 75 66 70 80 94 70 51 30 343 313 323 316 305 312 311 312 302 297 286 283 294 289 281 281 299 299 294 293 290 289 288 284 280 282 285 285 282 275 275 273
141 134 116 107 131 155 164 181 172 208 249 294 318 340 319 317 342 330 332 336 329 310 276 271 277 282 291 306 303 302 302 299 297 294 291 289 284 281 280 287 286 288 292
178 173 173 196 205 198 188 233 97 306 333 19 345 327 334 332 316 321 328 331 326 310 311 312 304 314 323 314 311 312 308 312 310 304 293 290 293 290 288 281 275 285 289
197 211 225 229 227 238 273 315 323 330 347 0 346 348 342 328 325 326 328 338 337 332 332 336 340 340 334 325 316 304 306 312 308 304 307 303 304 305 307 294 288 288 287
217 226 234 228 222 241 266 312 323 342 348 346 338 333 330 322 328 341 344 355 347 329 332 337 342 337 316 315 314 317 314 300 294 298 300 304 302 296 290 279 271 265 263
221 230 235 229 229 236 265 291 300 323 332 330 328 326 327 330 324 310 318 337 343 337 332 331 314 316 323 317 323 317 309 308 309 312 313 311 307 303 301 294 287 283 278
223 229 229 226 228 238 254 268 269 299 325 322 320 325 325 317 308 309 332 340 337 327 326 316 317 327 323 313 309 316 321 318 316 311 311 311 310 308 307 309 309 313 304
220 226 220 222 226 235 252 283 290 315 317 320 324 326 323 316 318 332 338 327 316 320 313 329 334 323 336 353 357 355 353 347 341 333 328 325 322 312 304 304 303 305 304
219 223 220 224 222 230 253 263 278 302 310 317 316 322 322 319 328 334 311 311 329 331 327 334 349 357 359 353 356 359 1 356 350 340 328 322 320 318 317 316 307 300 296
220 221 219 222 224 229 236 253 275 294 306 321 325 329 337 326 322 309 314 327 324 316 328 356 346 350 354 358 356 354 351 352 352 355 353 338 323 314 314 310 310 305 302
214 223 219 220 226 232 240 251 263 276 290 305 311 324 325 323 327 311 316 318 333 344 338 335 334 340 348 347 344 338 347 351 357 352 350 354 348 333 319 312 309 304 300
216 220 218 217 222 230 242 252 264 273 280 282 293 307 315 327 327 304 311 327 330 330 311 286 310 325 331 330 338 338 330 335 344 342 346 348 348 343 338 323 311 306 301
214 212 219 221 220 228 239 252 266 272 278 285 300 317 324 333 329 317 333 338 332 314 292 283 294 309 311 322 326 322 337 331 334 335 339 346 346 342 339 333 325 309 302
215 212 215 218 218 228 239 252 265 271 274 277 289 309 317 314 311 310 322 337 316 299 290 292 296 305 317 323 317 319 324 324 324 325 332 331 331 328 329 332 328 323 315
213 212 214 216 223 229 241 257 268 273 274 266 284 304 315 314 306 306 317 322 316 297 292 293 301 301 308 312 314 315 317 319 323 321 314 323 322 323 322 322 322 324 317
209 207 207 213 221 231 245 262 270 270 264 264 282 304 319 320 315 309 308 317 320 315 301 294 296 299 304 308 308 309 312 315 317 312 310 315 317 316 314 312 312 313 311
206 205 206 211 220 232 248 263 272 269 270 263 272 298 315 325 322 320 314 306 305 307 309 309 305 302 302 305 309 310 310 309 307 307 309 313 316 318 316 320 309 307 305
203 203 206 211 220 237 252 262 266 270 277 271 266 284 307 323 324 327 329 324 313 307 309 308 308 309 310 311 312 310 307 305 311 313 312 315 316 316 311 307 304 306 305
199 201 205 212 220 239 255 266 273 277 278 259 261 272 297 314 328 338 331 325 319 325 324 318 318 316 314 314 312 312 312 311 313 313 312 309 315 313 309 308 309 311 311